Time,TemperatureF,DewpointF,PressureIn,WindDirection,WindDirectionDegrees,WindSpeedMPH,WindSpeedGustMPH,Humidity,HourlyPrecipIn,Conditions,Clouds,dailyrainin,SoftwareType,DateUTC
2014-10-02 00:23:00,73.0,69.0,29.62,SSW,193,1.0,-999.0,86,-99.99,,,-99.99,,2014-10-02 05:23:00,
2014-10-02 00:42:00,73.0,69.0,29.62,South,180,3.0,-999.0,86,-99.99,,,-99.99,,2014-10-02 05:42:00,
2014-10-02 00:53:00,74.0,70.0,29.62,South,179,4.0,-999.0,86,-99.99,,,-99.99,,2014-10-02 05:53:00,
2014-10-02 01:12:00,74.0,69.0,29.62,South,190,5.0,-999.0,85,-99.99,,,-99.99,,2014-10-02 06:12:00,
2014-10-02 01:22:00,74.0,69.0,29.62,SSW,195,4.0,-999.0,85,-99.99,,,-99.99,,2014-10-02 06:22:00,
2014-10-02 01:53:00,74.0,69.0,29.62,SE,146,4.0,-999.0,85,-99.99,,,-99.99,,2014-10-02 06:53:00,
2014-10-02 02:12:00,74.0,70.0,29.61,South,175,4.0,-999.0,86,-99.99,,,-99.99,,2014-10-02 07:12:00,
2014-10-02 02:22:00,74.0,70.0,29.60,SSE,167,4.0,-999.0,86,-99.99,,,-99.99,,2014-10-02 07:22:00,
2014-10-02 02:42:00,74.0,70.0,29.59,SSE,154,4.0,-999.0,86,-99.99,,,-99.99,,2014-10-02 07:42:00,
2014-10-02 02:53:00,73.0,69.0,29.59,South,172,3.0,-999.0,86,-99.99,,,-99.99,,2014-10-02 07:53:00,
2014-10-02 03:12:00,73.0,69.0,29.59,SSE,161,4.0,-999.0,87,-99.99,,,-99.99,,2014-10-02 08:12:00,
2014-10-02 03:22:00,73.0,69.0,29.59,South,186,4.0,-999.0,86,-99.99,,,-99.99,,2014-10-02 08:22:00,
2014-10-02 03:42:00,73.0,69.0,29.59,SSW,203,4.0,-999.0,87,-99.99,,,-99.99,,2014-10-02 08:42:00,
2014-10-02 03:52:00,73.0,69.0,29.59,South,183,4.0,-999.0,87,-99.99,,,-99.99,,2014-10-02 08:52:00,
2014-10-02 04:23:00,73.0,69.0,29.57,SSW,193,5.0,-999.0,87,-99.99,,,-99.99,,2014-10-02 09:23:00,
2014-10-02 04:53:00,73.0,69.0,29.59,South,185,4.0,-999.0,88,-99.99,,,-99.99,,2014-10-02 09:53:00,
2014-10-02 05:13:00,73.0,69.0,29.59,SSW,194,4.0,-999.0,88,-99.99,,,-99.99,,2014-10-02 10:13:00,
2014-10-02 05:24:00,73.0,69.0,29.59,SSW,198,5.0,-999.0,88,-99.99,,,-99.99,,2014-10-02 10:24:00,
2014-10-02 05:53:00,73.0,70.0,29.60,SSW,197,2.0,-999.0,89,-99.99,,,-99.99,,2014-10-02 10:53:00,
2014-10-02 06:13:00,73.0,70.0,29.61,SSW,198,3.0,-999.0,89,-99.99,,,-99.99,,2014-10-02 11:13:00,
2014-10-02 06:23:00,73.0,70.0,29.62,South,188,4.0,-999.0,89,-99.99,,,-99.99,,2014-10-02 11:23:00,
2014-10-02 06:43:00,73.0,69.0,29.62,SSW,199,2.0,-999.0,88,-99.99,,,-99.99,,2014-10-02 11:43:00,
2014-10-02 06:53:00,73.0,69.0,29.64,South,186,3.0,-999.0,88,-99.99,,,-99.99,,2014-10-02 11:53:00,
2014-10-02 07:12:00,73.0,70.0,29.62,South,183,3.0,-999.0,89,-99.99,,,-99.99,,2014-10-02 12:12:00,
2014-10-02 07:22:00,73.0,70.0,29.62,South,181,3.0,-999.0,89,-99.99,,,-99.99,,2014-10-02 12:22:00,